Vorticity
nan nan nan nan nan nan nan nan nan nan nan nan nan nan nan nan nan nan nan nan nan nan nan nan nan nan nan nan nan nan nan nan nan nan nan nan nan nan nan nan nan nan nan
nan 7 7 6 7 7 7 7 7 6 7 8 6 9 8 7 7 7 8 11 9 8 9 8 7 6 5 5 6 7 6 6 7 6 3 5 9 7 6 7 7 5 nan
nan 6 5 7 7 8 7 6 6 6 7 9 7 9 9 7 8 7 7 9 10 9 8 10 9 9 8 8 4 4 3 4 7 7 4 4 7 7 6 7 7 8 nan
nan 5 6 7 7 7 7 7 7 6 6 6 7 10 9 9 8 6 7 8 8 9 11 9 8 9 7 5 3 3 3 2 5 4 5 4 6 6 5 6 6 6 nan
nan 5 6 9 7 6 7 7 8 7 6 6 7 8 9 9 8 7 7 7 7 7 11 11 8 5 6 6 6 4 5 4 5 5 5 6 5 4 5 5 6 6 nan
nan 4 7 9 6 6 7 8 8 7 8 8 8 7 8 8 9 8 7 6 7 8 8 8 7 10 11 8 8 5 6 6 6 6 6 6 5 5 6 6 6 7 nan
nan 4 5 9 7 8 8 5 8 7 5 5 4 6 11 12 8 7 8 8 8 7 7 6 6 9 13 13 12 9 7 6 6 6 6 5 4 7 6 7 6 6 nan
nan 6 6 8 6 7 9 8 4 3 9 8 4 4 5 5 12 12 8 9 8 7 8 6 6 6 7 10 17 16 10 9 8 7 6 8 5 7 7 6 7 7 nan
nan 6 5 7 7 6 9 9 8 5 4 8 6 1 6 9 9 12 11 10 8 7 9 9 7 6 6 7 9 12 11 8 12 12 9 8 9 8 8 7 8 8 nan
nan 9 6 6 5 6 9 7 7 7 7 5 2 2 7 12 8 7 13 13 10 8 7 8 10 9 6 8 10 10 10 7 5 11 13 8 11 8 8 8 8 7 nan
nan 10 8 6 4 7 11 9 7 4 6 7 6 2 1 7 8 12 12 6 9 13 9 9 9 10 9 7 8 12 11 9 7 6 11 13 8 8 9 9 8 6 nan
nan 13 8 6 7 7 8 10 10 6 5 6 7 7 3 4 4 4 14 16 8 8 9 9 9 9 9 11 12 12 9 8 8 7 9 12 11 9 8 9 8 6 nan
nan 16 9 6 8 9 7 8 9 11 6 8 6 5 6 4 6 4 9 14 8 9 14 12 10 8 9 10 13 15 11 9 9 8 7 9 11 11 10 9 9 8 nan
nan 21 18 12 8 7 6 6 7 11 9 10 8 4 6 6 7 8 7 5 8 10 6 13 14 8 8 10 15 10 9 14 9 9 8 7 9 11 10 10 10 10 nan
nan 21 10 10 18 16 9 5 8 9 9 9 10 6 5 6 7 8 9 8 7 12 7 6 12 14 7 9 11 11 12 15 11 9 9 8 7 8 9 8 9 10 nan
nan 26 28 18 5 4 14 9 7 9 8 6 11 10 5 7 5 6 11 9 7 11 14 11 7 13 13 8 12 11 12 15 15 8 9 9 9 8 8 8 8 9 nan
nan 16 37 31 23 12 6 18 17 11 8 7 7 10 7 5 5 5 5 7 8 8 11 11 13 13 13 9 8 10 11 9 17 18 11 8 9 9 9 9 8 8 nan
nan 12 13 23 26 23 11 9 22 26 12 9 8 7 6 6 9 6 6 6 4 5 8 12 8 10 13 15 11 10 9 9 14 20 13 11 9 7 8 9 8 8 nan
nan 8 9 12 10 15 20 13 11 9 26 26 7 10 8 5 4 7 10 7 6 6 5 7 9 10 10 10 14 11 13 10 12 21 18 12 10 8 8 9 9 8 nan
nan 13 7 7 9 10 14 10 10 13 11 23 30 11 9 9 7 4 8 10 9 8 8 5 6 9 11 10 11 9 7 13 10 13 18 16 17 15 13 12 9 8 nan
nan 8 9 8 7 10 9 10 15 17 10 7 25 29 11 9 8 4 5 7 6 7 7 8 4 4 6 11 11 9 8 9 10 9 11 12 15 14 14 15 14 15 nan
nan 10 14 8 7 3 4 15 16 13 13 16 8 27 31 16 10 12 9 6 7 4 3 6 7 7 6 3 9 12 9 6 10 12 9 8 12 8 12 17 19 14 nan
nan 8 9 10 11 4 6 11 15 13 10 11 13 15 13 20 29 21 13 11 11 11 8 5 6 8 10 10 7 7 7 5 9 13 12 8 11 10 12 15 21 14 nan
nan 10 8 11 12 4 3 12 16 14 9 8 8 10 13 9 13 20 28 23 11 9 9 9 10 9 10 11 11 11 10 3 4 15 15 11 9 14 12 17 17 14 nan
nan 10 9 8 9 6 3 15 18 12 10 10 9 7 8 5 4 23 27 26 18 11 10 12 10 13 14 10 7 5 9 9 7 12 10 9 9 12 10 14 20 19 nan
nan nan nan nan nan nan nan nan nan nan nan nan nan nan nan nan nan nan nan nan nan nan nan nan nan nan nan nan nan nan nan nan nan nan nan nan nan nan nan nan nan nan nan
CAPE
808 786 746 635 597 262 155 40 11 0 0 0 0 0 83 195 378 560 725 896 1145 1281 1474 1186 1159 1050 930 926 790 657 527 368 277 182 93 39 32 36 28 30 35 30 34
900 754 637 607 429 169 88 44 23 0 0 0 0 0 39 129 269 212 461 683 888 1042 1122 1405 1361 1102 917 818 545 433 267 150 84 14 41 40 31 26 23 19 19 19 18
946 824 671 549 317 157 65 33 9 0 0 0 0 0 3 6 38 79 101 263 390 681 764 582 901 1008 1033 808 385 194 44 25 17 28 14 11 32 18 14 7 8 7 10
873 811 690 492 392 107 49 34 13 0 0 0 0 0 0 0 0 0 0 0 31 71 63 189 272 454 395 435 249 26 9 20 26 7 3 7 24 11 5 0 0 0 0
815 880 736 591 361 84 13 18 3 0 0 0 0 0 0 0 0 0 0 0 0 0 0 1 30 10 14 44 40 13 9 6 7 4 3 3 23 4 0 0 0 0 4
943 1010 839 674 310 55 0 0 0 0 0 5 0 0 0 0 0 0 0 0 0 0 0 0 0 1 2 10 3 7 11 6 9 6 5 7 16 4 0 0 0 0 0
1034 994 911 661 251 35 0 0 0 0 33 8 0 0 0 0 0 0 0 0 0 0 0 0 0 0 0 0 5 6 9 7 3 8 5 3 18 8 0 0 0 0 0
1029 996 909 633 236 39 0 0 0 0 58 5 6 0 0 0 0 0 0 0 0 0 0 0 0 0 0 0 0 3 6 8 16 8 5 5 7 17 0 0 0 2 0
1087 978 957 614 230 57 0 0 0 0 126 13 6 0 0 0 0 0 0 0 0 0 0 0 0 0 0 0 0 0 0 0 13 28 18 15 6 16 10 9 9 5 2
1052 991 968 538 231 60 14 0 2 2 140 13 0 0 0 0 0 0 0 0 0 0 0 0 0 0 0 0 0 0 0 0 0 1 16 18 7 3 12 11 10 8 5
940 1087 909 562 270 62 31 0 3 13 66 61 4 0 0 0 0 0 0 0 0 0 0 0 0 0 0 0 0 0 0 0 0 0 1 9 6 7 14 15 10 12 9
190 1035 984 693 404 105 60 5 0 34 48 46 4 0 0 0 0 0 0 0 0 0 0 0 0 0 0 0 0 0 0 0 0 0 0 0 1 4 11 15 12 9 3
106 920 1022 867 401 128 39 39 1 49 32 18 3 0 0 0 0 0 0 0 0 0 0 0 0 0 0 0 0 0 0 0 0 0 0 0 0 0 1 10 18 9 12
38 313 747 825 552 278 104 15 14 40 45 14 1 0 0 0 0 0 0 0 0 0 0 0 0 0 0 0 0 0 0 0 0 0 0 0 0 0 0 0 0 8 2
4 9 3 0 289 340 215 21 37 24 23 8 1 0 0 0 0 0 0 0 0 0 0 0 0 0 0 0 0 0 0 0 0 0 0 0 0 0 0 0 0 0 1
1 1 4 31 4 378 226 75 77 55 23 4 2 5 0 0 0 0 0 0 0 0 0 0 0 0 0 0 0 0 0 0 0 0 0 0 0 0 0 0 0 0 0
2 5 0 0 0 0 167 85 80 62 37 12 0 0 0 0 0 0 0 0 0 0 0 0 0 0 0 0 0 0 0 0 0 0 0 0 0 0 0 0 0 0 0
3 4 5 4 0 0 2 1 0 8 31 45 2 0 0 0 0 0 0 0 0 0 0 0 0 0 0 0 0 0 0 0 0 0 0 0 0 0 0 0 0 0 0
3 4 3 4 6 3 2 0 1 0 3 44 15 0 0 0 0 0 0 0 0 0 0 0 0 0 0 0 0 0 0 0 0 0 0 0 0 0 0 0 0 0 0
3 2 5 4 2 2 2 2 0 1 1 1 23 0 0 0 0 0 0 0 0 0 0 0 0 0 0 0 0 0 0 0 0 0 0 0 0 0 0 0 0 0 0
3 1 2 2 2 1 0 0 1 2 1 0 0 2 0 0 0 0 0 0 0 0 0 0 0 0 0 0 0 0 0 0 0 0 0 0 0 0 0 0 0 0 0
2 0 1 1 2 2 0 0 0 3 4 1 0 1 0 0 0 0 0 0 0 0 0 0 0 0 0 0 0 0 0 0 0 0 0 0 0 0 0 0 0 0 0
2 1 0 1 1 3 0 0 0 1 3 4 2 2 0 3 0 0 0 0 0 0 0 0 0 0 0 0 0 0 0 0 0 0 0 0 0 0 0 0 0 0 0
1 0 0 2 2 4 0 0 0 1 0 1 5 3 3 2 0 1 1 0 0 0 0 0 0 0 0 0 0 0 0 0 0 1 0 0 1 0 0 0 0 0 0
0 0 0 0 1 0 0 0 0 2 2 1 1 5 3 2 0 0 0 0 0 0 0 0 0 0 0 0 0 0 0 0 1 0 1 0 0 1 1 1 0 0 0
1 0 0 0 0 0 0 0 0 4 1 1 1 1 0 0 0 0 0 0 1 0 0 1 0 0 1 0 0 0 0 0 0 1 0 0 2 0 1 1 1 1 0